Back to catalog

CZ-6A DEB

AliveSSO
NORAD 54476·DEBRIS·🇨🇳 China

Launched Nov 11, 2022 from Taiyuan Satellite Launch Center

Loading…

Next Passes (next 24 hours)

TLE

FreshSource: Space-Track

Epoch: Sep 13, 2026, 14:10 UTC

1 54476U 22151HC  26256.59052004  .00002325  00000-0  59620-3 0  9990
2 54476  98.6016 297.9775 0107352  91.7616 269.5875 14.47884547201515

Track CZ-6A DEB in real time with AllMySat

Download on the App Store